(311799) = 2006 UK124

Discovered at Catalina on 2006-10-19 by CSS.

Orbit

Orbit type: Main Belt

Note: WebGL enabled browser required.

epoch2024-03-31.0
epoch JD2460400.5
perihelion date2023-12-14.09977
perihelion JD2460292.59977
argument of perihelion (°)87.98753
ascending node (°)306.22373
inclination (°)11.80031
eccentricity0.2120109
perihelion distance (AU)2.0740932
Tisserand w.r.t. Jupiter3.3
ΔV w.r.t. Earth (km/sec)9.7
semimajor axis (AU)2.6321345
mean anomaly (°)24.90371
mean daily motion (°/day)0.23080320
aphelion distance (AU)3.190
period (years)4.27
P-vector [x]0.80993176
P-vector [y]0.42310353
P-vector [z]0.40619446
Q-vector [x]-0.56284454
Q-vector [y]0.75547127
Q-vector [z]0.33536426
absolute magnitude16.24
phase slope0.15
uncertainty0
referenceMPEC 2024-D119
observations used642
oppositions10
arc length (days)6403
first opposition used2006
last opposition used2024
residual rms (arc-secs)0.66
perturbers coarse indicatorM-v
perturbers precise indicator003Ek
first observation date used2006-08-12.0
last observation date used2024-02-22.0
computer nameMPCLINUX
JD of orbit computation2456909.119258
perihelion JD uncertainty (days)3.6879E-04
argument of perihelion uncertainty (°)7.7547E-05
ascending node uncertainty (°)2.2480E-05
inclination uncertainty (°)8.8244E-06
eccentricity uncertainty 8.9837E-08
perihelion distance uncertainty (AU)3.0303E-07
Minimum Orbit Intersection Distances (in AU)
for orbit epoch: 2460400.5, reference: E2024-DB9
Mercury1.75906
Venus1.3831
Earth1.12002
Mars0.68354
Jupiter2.40393
Saturn6.50706
Uranus15.4553
Neptune27.5711

Observations

655 total observations over interval: 2006 08 12.45170 – 2024 02 22.260678
These data are available for download (format description).

Date (UT) J2000 RA J2000 Dec Magn Location Ref
2006 08 12.45170 01 22 12.17 +23 06 07.1 19.8 R 644 – Palomar Mountain/NEAT MPS 186566
2006 08 12.46261 01 22 12.55 +23 06 15.4 19.5 R 644 – Palomar Mountain/NEAT MPS 186566
2006 08 12.47358 01 22 12.94 +23 06 24.0 19.7 R 644 – Palomar Mountain/NEAT MPS 186566
2006 09 17.41944 01 24 26.89 +29 14 45.4 18.9 V 703 – Catalina Sky Survey MPS 185716
2006 09 17.43125 01 24 26.42 +29 14 51.1 18.7 V 703 – Catalina Sky Survey MPS 185716
2006 09 17.44306 01 24 26.24 +29 14 55.6 18.1 V 703 – Catalina Sky Survey MPS 185716
2006 09 17.45498 01 24 25.77 +29 14 58.7 18.6 V 703 – Catalina Sky Survey MPS 185716
2006 09 28.34168 01 17 10.06 +30 08 43.3 18.7 V 703 – Catalina Sky Survey MPS 185716
2006 09 28.34896 01 17 09.67 +30 08 44.2 18.7 V 703 – Catalina Sky Survey MPS 185716
2006 09 28.35630 01 17 09.31 +30 08 45.4 18.7 V 703 – Catalina Sky Survey MPS 185716
2006 09 28.36355 01 17 08.95 +30 08 47.0 18.6 V 703 – Catalina Sky Survey MPS 185716
2006 10 19.22425 00 57 44.31 +29 57 42.1 18.6 V 703 – Catalina Sky Survey MPS 184345
2006 10 19.23338 00 57 43.77 +29 57 40.1 18.4 V 703 – Catalina Sky Survey MPS 184345
2006 10 19.24251 00 57 43.23 +29 57 37.6 18.6 V 703 – Catalina Sky Survey MPS 184345
2006 10 19.25169 00 57 42.69 +29 57 35.1 18.5 V 703 – Catalina Sky Survey MPS 184345
2006 10 24.29221 00 53 09.70 +29 33 29.5 17.8 R 644 – Palomar Mountain/NEAT MPS 184345
2006 10 24.31299 00 53 08.57 +29 33 22.6 17.8 R 644 – Palomar Mountain/NEAT MPS 184345
2006 10 24.33498 00 53 07.36 +29 33 15.3 18.3 R 644 – Palomar Mountain/NEAT MPS 184345
2006 10 27.20311 00 50 45.16 +29 16 39.3 18.2 V 703 – Catalina Sky Survey MPS 184345
2006 10 27.21098 00 50 44.80 +29 16 37.1 18.5 V 703 – Catalina Sky Survey MPS 184345
2006 10 27.21877 00 50 44.34 +29 16 33.6 18.6 V 703 – Catalina Sky Survey MPS 184345
2006 10 27.22654 00 50 43.90 +29 16 30.2 18.4 V 703 – Catalina Sky Survey MPS 184345
2006 11 15.16061 00 41 03.40 +26 58 45.6 18.5 V 703 – Catalina Sky Survey MPS 187176
2006 11 15.16712 00 41 03.22 +26 58 41.1 18.9 V 703 – Catalina Sky Survey MPS 187176
2006 11 15.17363 00 41 03.15 +26 58 38.5 18.8 V 703 – Catalina Sky Survey MPS 187176
2006 11 15.18017 00 41 03.08 +26 58 35.0 18.9 V 703 – Catalina Sky Survey MPS 187176
2007 03 11.10315 03 10 59.70 +26 11 50.7 20.4 V G96 – Mt. Lemmon Survey MPS 203143
2007 03 11.10931 03 11 00.45 +26 11 51.8 21.0 V G96 – Mt. Lemmon Survey MPS 203143
2007 03 11.11540 03 11 01.17 +26 11 52.8 20.9 V G96 – Mt. Lemmon Survey MPS 203143
2007 03 11.12148 03 11 01.96 +26 11 54.7 21.4 V G96 – Mt. Lemmon Survey MPS 203143
2008 03 02.25404 10 47 12.22 -04 03 41.4 21.5 V 703 – Catalina Sky Survey MPS 344927
2008 03 02.26224 10 47 11.65 -04 03 40.5 21.0 V 703 – Catalina Sky Survey MPS 344927
2008 03 02.27048 10 47 11.22 -04 03 37.5 20.7 V 703 – Catalina Sky Survey MPS 344927
2008 03 02.27870 10 47 10.64 -04 03 36.9 20.5 V 703 – Catalina Sky Survey MPS 344927
2010 07 24.21744 22 38 32.49 -02 18 19.7 19.0 Y W91 – VHS-VISTA, Cerro Paranal MPS 678574
2010 07 24.22079 22 38 32.40 -02 18 18.5 18.6 J W91 – VHS-VISTA, Cerro Paranal MPS 678574
2010 07 24.22231 22 38 32.36 -02 18 18.1 18.7 J W91 – VHS-VISTA, Cerro Paranal MPS 678574
2010 07 24.23087 22 38 32.13 -02 18 15.3 18.1 H W91 – VHS-VISTA, Cerro Paranal MPS 678574
2010 07 24.23246 22 38 32.09 -02 18 14.7 18.3 H W91 – VHS-VISTA, Cerro Paranal MPS 678574
2010 08 04.39410 22 32 17.98 -01 25 57.2 19.4   704 – Lincoln Laboratory ETS, New Mexico MPS 344927
2010 08 04.40589 22 32 17.47 -01 25 54.0 19.6   704 – Lincoln Laboratory ETS, New Mexico MPS 344927
2010 08 04.41864 22 32 16.92 -01 25 51.5 19.7   704 – Lincoln Laboratory ETS, New Mexico MPS 344927
2010 08 04.43148 22 32 16.32 -01 25 49.4 19.8   704 – Lincoln Laboratory ETS, New Mexico MPS 344927
2010 08 06.34957 22 30 52.77 -01 18 31.1   704 – Lincoln Laboratory ETS, New Mexico MPS 407672
2010 08 06.36132 22 30 52.03 -01 18 28.0   704 – Lincoln Laboratory ETS, New Mexico MPS 407672
2010 08 06.37311 22 30 51.46 -01 18 23.8   704 – Lincoln Laboratory ETS, New Mexico MPS 407672
2010 08 09.69339 22 28 14.37 -01 07 04.1 19.5 R D29 – Purple Mountain Observatory, XuYi Station MPS 445882
2010 08 09.70668 22 28 13.72 -01 07 01.8 19.0 R D29 – Purple Mountain Observatory, XuYi Station MPS 445882
2010 08 09.72088 22 28 12.93 -01 06 59.1 19.2 R D29 – Purple Mountain Observatory, XuYi Station MPS 445882
2010 08 30.82924 22 07 48.87 -00 30 16.1 19.0 V J75 – OAM Observatory, La Sagra MPS 346338
2010 08 30.84372 22 07 48.01 -00 30 16.2 18.3 V J75 – OAM Observatory, La Sagra MPS 346338
2010 08 30.85815 22 07 47.07 -00 30 15.5 18.7 V J75 – OAM Observatory, La Sagra MPS 346338
2010 09 04.26052 22 03 21.37 -00 29 19.1 19.4   704 – Lincoln Laboratory ETS, New Mexico MPS 347137
2010 09 04.27336 22 03 20.59 -00 29 19.3 19.4   704 – Lincoln Laboratory ETS, New Mexico MPS 347137
2010 09 04.28621 22 03 19.79 -00 29 18.9 19.6   704 – Lincoln Laboratory ETS, New Mexico MPS 347137
2010 09 04.29905 22 03 18.97 -00 29 18.7 19.4   704 – Lincoln Laboratory ETS, New Mexico MPS 347137
2010 09 04.31198 22 03 18.17 -00 29 19.0 19.5   704 – Lincoln Laboratory ETS, New Mexico MPS 347137
2010 09 05.88898 22 01 45.90 -00 29 26.4 19.1 V J75 – OAM Observatory, La Sagra MPS 347137
2010 09 05.89094 22 01 45.79 -00 29 26.1 19.0 V J75 – OAM Observatory, La Sagra MPS 347137
2010 09 05.90091 22 01 45.15 -00 29 26.4 19.0 V J75 – OAM Observatory, La Sagra MPS 347137
2010 09 05.90286 22 01 45.09 -00 29 26.8 18.4 V J75 – OAM Observatory, La Sagra MPS 347137
2010 09 05.91289 22 01 44.45 -00 29 26.4 18.9 V J75 – OAM Observatory, La Sagra MPS 347137
2010 09 05.91484 22 01 44.37 -00 29 26.9 19.1 V J75 – OAM Observatory, La Sagra MPS 347137
2010 09 10.23899 21 57 41.20 -00 30 39.5 19.4   704 – Lincoln Laboratory ETS, New Mexico MPS 348026
2010 09 10.25102 21 57 40.55 -00 30 39.2 19.6   704 – Lincoln Laboratory ETS, New Mexico MPS 348026
2010 09 10.26348 21 57 39.77 -00 30 39.3 19.9   704 – Lincoln Laboratory ETS, New Mexico MPS 348026
2010 09 10.27551 21 57 39.04 -00 30 40.7 19.7   704 – Lincoln Laboratory ETS, New Mexico MPS 348026
2010 09 10.28754 21 57 38.38 -00 30 41.0 19.6   704 – Lincoln Laboratory ETS, New Mexico MPS 348026
2010 09 10.457184 21 57 29.106 -00 30 44.18 19.61 g F51 – Pan-STARRS 1, Haleakala MPS 365637
2010 09 10.468326 21 57 28.486 -00 30 44.34 19.75 g F51 – Pan-STARRS 1, Haleakala MPS 365637
2010 09 10.480367 21 57 27.807 -00 30 44.55 19.19 r F51 – Pan-STARRS 1, Haleakala MPS 365637
2010 09 10.491932 21 57 27.166 -00 30 44.79 19.28 r F51 – Pan-STARRS 1, Haleakala MPS 365637
2010 09 12.22030 21 55 56.20 -00 31 36.0 19.2 V 703 – Catalina Sky Survey MPS 348026
2010 09 12.22426 21 55 55.99 -00 31 35.5 19.1 V 703 – Catalina Sky Survey MPS 348026
2010 09 12.22818 21 55 55.77 -00 31 36.3 19.1 V 703 – Catalina Sky Survey MPS 348026
2010 09 12.23219 21 55 55.52 -00 31 37.1 18.3 V 703 – Catalina Sky Survey MPS 348026
2010 09 16.25036 21 52 37.84 -00 33 58.2 19.3 V 703 – Catalina Sky Survey MPS 348026
2010 09 16.25778 21 52 37.52 -00 33 58.2 19.1 V 703 – Catalina Sky Survey MPS 348026
2010 09 16.26528 21 52 37.16 -00 33 58.6 18.9 V 703 – Catalina Sky Survey MPS 348026
2010 09 16.27269 21 52 36.80 -00 33 59.5 19.4 V 703 – Catalina Sky Survey MPS 348026
2010 11 25.09620 22 11 57.22 +01 11 40.0 20.1 V G96 – Mt. Lemmon Survey MPS 357464
2010 11 25.10310 22 11 57.73 +01 11 42.2 20.1 V G96 – Mt. Lemmon Survey MPS 357464
2010 11 25.10999 22 11 58.20 +01 11 44.5 20.1 V G96 – Mt. Lemmon Survey MPS 357464
2010 11 25.11690 22 11 58.70 +01 11 46.9 20.1 V G96 – Mt. Lemmon Survey MPS 357464
2011 01 14.09661 23 29 24.36 +07 46 32.0 20.1 V G96 – Mt. Lemmon Survey MPS 367062
2011 01 14.10120 23 29 24.86 +07 46 35.0 20.7 V G96 – Mt. Lemmon Survey MPS 367062
2011 01 14.10580 23 29 25.29 +07 46 37.7 20.2 V G96 – Mt. Lemmon Survey MPS 367062
2011 01 14.11039 23 29 25.83 +07 46 40.5 20.8 V G96 – Mt. Lemmon Survey MPS 367062
2011 12 20.15767 10 00 27.06 +11 34 59.7 21.0   J43 – Oukaimeden Observatory, Marrakech MPS 404232
2011 12 20.17789 10 00 27.01 +11 34 54.1 20.5   J43 – Oukaimeden Observatory, Marrakech MPS 404232
2011 12 20.19803 10 00 26.93 +11 34 49.7 20.8   J43 – Oukaimeden Observatory, Marrakech MPS 404232
